Theta_e
343 344 335 341 346 342 339 335 333 334 334 335 335 331 335 337 335 336 334 333 336 337 339 338 337 337 337 336 334 332 332 332 333 333 333 334 335 334 333 332 333 333 332
343 344 334 343 345 343 338 335 332 333 336 339 335 331 335 336 333 333 334 336 337 337 336 336 336 336 335 334 333 331 331 331 332 331 332 334 333 333 332 330 330 330 329
342 343 338 342 346 344 342 341 337 331 333 339 334 332 334 335 334 336 336 336 336 335 334 334 335 334 334 332 331 330 330 329 330 330 330 331 331 330 329 328 327 327 327
341 343 339 340 345 344 342 342 339 340 339 337 336 332 331 333 336 336 335 335 333 333 332 331 332 332 331 329 328 327 325 325 326 327 328 328 329 329 328 326 326 326 325
342 342 341 338 339 339 341 341 340 339 339 337 334 332 334 335 337 336 334 333 331 331 330 329 330 330 327 327 326 322 323 323 325 325 326 326 326 326 326 325 324 323 322
342 339 341 338 334 336 339 342 340 339 338 336 335 335 337 337 335 333 331 330 330 330 331 331 329 328 325 325 323 322 324 324 323 323 323 323 323 324 323 322 321 320 320
341 340 339 337 331 337 339 342 340 339 338 336 336 335 335 335 334 331 328 328 329 329 330 329 327 323 322 322 323 322 322 321 321 322 322 322 322 322 321 321 319 319 318
340 342 338 338 335 330 333 336 335 338 337 336 335 334 333 332 330 328 329 330 329 328 327 326 324 324 323 323 320 320 320 321 321 322 321 321 321 320 319 319 318 318 317
339 341 340 338 337 331 332 333 327 338 336 335 334 332 330 331 328 330 330 331 327 324 324 323 322 323 322 322 319 319 320 321 321 321 320 319 320 319 318 317 317 316 316
338 336 338 338 335 334 332 332 331 336 335 334 332 332 332 329 328 331 330 330 326 320 318 320 321 322 322 322 317 319 320 321 320 320 320 319 320 318 317 317 316 316 315
336 335 335 335 335 333 334 331 331 329 332 332 331 330 330 331 331 330 331 329 323 315 314 316 318 318 317 315 317 319 320 320 321 320 319 318 319 318 317 316 316 315 315
335 335 333 332 330 332 331 330 330 329 330 329 330 328 329 329 330 329 329 328 321 313 314 314 313 312 315 316 318 319 322 321 320 320 319 319 319 318 317 316 316 315 314
334 334 332 330 329 330 328 327 330 330 329 328 328 324 322 325 328 327 327 328 323 318 319 317 315 318 317 316 320 322 321 322 321 320 318 318 318 318 317 316 315 314 313
333 332 332 329 327 327 327 328 329 328 328 326 325 320 322 324 326 328 328 327 323 321 321 319 319 319 319 318 320 322 322 321 320 320 319 318 318 318 317 315 314 313 313
332 332 331 330 329 327 326 325 326 327 325 325 320 321 323 325 326 328 327 326 323 323 322 319 321 320 319 319 320 322 322 322 321 320 318 318 318 317 317 316 315 313 313
329 327 328 329 329 327 325 325 325 326 324 323 323 320 321 325 325 326 326 326 324 323 322 321 321 320 319 319 320 321 321 321 322 321 320 318 317 317 317 316 315 314 313
330 328 325 326 326 327 327 325 326 327 324 322 319 319 323 323 324 325 326 325 323 323 322 321 321 319 317 319 319 320 320 321 321 322 321 319 318 317 317 317 316 315 314
328 327 325 324 325 326 325 324 325 325 324 321 319 323 323 323 322 322 322 321 321 322 321 320 319 318 317 318 319 319 319 320 320 321 321 321 320 319 318 318 317 316 315
327 325 325 324 323 323 323 323 324 323 323 321 322 323 322 321 320 319 318 318 318 319 319 319 319 318 317 317 318 318 318 318 318 318 319 320 320 320 320 318 318 317 316
327 325 325 323 322 322 322 322 322 322 321 322 322 322 320 319 318 317 317 318 317 317 317 318 318 318 317 317 317 316 316 315 315 315 316 317 319 319 320 320 318 318 317
327 326 326 323 322 322 321 321 321 321 322 321 321 319 319 318 318 315 317 318 319 318 318 318 317 317 316 316 315 315 315 315 315 315 315 315 316 317 318 318 320 318 317
326 326 324 323 322 322 322 321 321 321 320 320 321 322 319 320 319 315 317 318 319 319 320 320 319 318 316 315 314 315 317 316 315 316 315 315 315 316 316 318 318 318 318
327 326 324 322 322 322 321 323 321 320 320 319 318 320 322 323 320 318 318 319 319 321 322 322 322 321 320 318 317 318 320 321 319 318 316 316 316 315 315 315 317 317 317
326 326 325 323 322 323 321 321 321 320 319 319 318 317 318 322 322 317 320 321 321 320 322 324 323 323 322 321 321 319 321 323 324 322 319 317 316 316 315 315 314 315 316
327 326 325 322 323 322 322 321 321 321 320 318 318 317 319 321 320 321 320 322 322 322 322 322 323 324 323 323 322 322 321 322 322 323 325 321 318 317 315 313 313 314 316
327 327 325 324 322 322 322 322 321 320 320 319 318 318 320 321 322 321 322 322 323 324 324 323 323 324 324 324 323 324 323 322 322 322 324 323 322 319 317 314 311 314 315
Wind_Speed
4 12 19 16 26 29 30 30 30 29 29 27 28 28 27 27 30 29 27 28 25 25 23 23 24 24 24 24 24 28 30 30 30 30 29 28 27 27 28 29 28 27 28
6 10 19 17 24 31 31 31 31 31 28 28 29 30 28 26 28 29 30 30 28 25 23 22 23 24 24 25 27 29 30 30 30 29 29 28 28 27 28 28 27 25 27
9 13 16 21 24 26 26 27 31 36 35 31 29 30 30 26 30 31 31 29 28 25 23 22 22 23 24 28 30 31 31 31 29 27 25 23 23 24 25 26 25 25 24
10 15 17 19 20 25 27 25 29 29 36 35 32 30 29 28 27 30 32 30 28 28 22 22 22 23 24 28 29 30 28 28 25 26 21 20 20 22 24 23 23 24 24
8 15 19 20 21 22 26 28 31 33 33 34 34 32 32 30 31 31 33 30 30 27 24 23 23 23 25 26 29 29 25 20 16 17 19 19 20 20 23 23 23 23 24
9 17 20 20 22 22 27 32 35 36 36 35 33 36 34 32 32 31 31 30 30 27 25 22 22 22 24 24 26 27 25 22 19 19 19 21 19 21 22 24 23 23 23
11 16 21 23 25 22 25 32 35 39 38 35 38 36 35 33 30 29 29 30 29 28 25 23 22 24 23 27 28 24 21 17 18 19 19 19 20 21 20 22 22 23 22
10 16 19 21 26 23 25 23 24 35 37 37 38 36 33 30 29 30 31 32 31 28 26 23 24 24 25 26 25 21 19 18 19 19 20 20 21 22 20 21 21 21 21
8 12 15 17 20 22 23 24 28 38 42 41 38 35 32 33 32 28 32 32 29 27 26 24 25 24 25 26 20 21 17 16 17 20 20 21 20 20 20 21 20 20 20
7 10 9 12 15 17 18 18 20 28 35 40 37 36 36 36 34 28 29 29 27 27 27 26 25 24 24 22 20 18 18 18 18 18 18 20 21 20 19 20 19 19 19
8 8 14 9 10 12 13 18 17 20 26 31 35 34 36 31 31 29 25 28 28 28 27 25 24 23 22 22 22 23 14 14 15 16 17 20 19 19 19 18 19 18 18
8 9 14 17 15 10 9 15 15 22 15 27 27 30 32 31 27 23 24 28 28 28 26 25 23 23 21 19 18 11 7 12 14 15 17 20 19 18 18 17 18 18 16
3 5 14 20 23 13 10 15 18 25 26 25 26 31 30 27 24 22 26 28 26 26 23 21 23 18 18 18 14 8 14 11 14 15 19 18 17 17 17 16 16 16 15
4 4 7 26 18 23 22 21 23 23 28 30 30 31 28 28 23 24 24 25 26 24 22 20 17 16 16 15 10 13 12 13 14 15 17 18 17 16 15 15 15 15 15
2 5 9 27 21 20 23 26 27 26 28 33 34 31 28 22 25 25 26 27 25 23 21 20 15 15 15 14 13 13 11 11 15 15 15 17 17 16 15 14 14 14 14
6 8 10 20 23 24 23 25 30 33 39 40 39 35 29 24 24 25 26 27 26 24 21 19 16 16 16 15 14 13 12 13 12 14 15 17 18 17 16 15 14 14 14
8 11 12 14 19 29 29 29 30 36 42 45 40 35 26 25 25 24 26 26 25 23 21 17 16 16 16 16 15 14 12 12 11 12 14 15 15 18 18 18 16 15 15
10 10 11 12 16 19 22 24 24 34 40 40 41 31 28 25 22 22 22 21 20 18 19 18 18 17 17 17 16 15 13 12 12 11 11 14 16 15 19 19 19 19 17
13 15 13 13 16 19 20 23 25 33 40 40 29 28 27 25 22 20 20 18 20 20 19 18 17 17 17 17 16 14 13 13 13 12 12 12 13 15 19 22 23 21 19
14 17 14 14 18 21 23 24 25 31 32 31 24 23 26 25 26 21 16 15 19 18 18 17 17 17 17 17 16 15 13 13 12 13 13 14 14 15 17 21 23 22 23
15 16 18 20 22 25 26 26 27 27 29 30 23 24 25 23 22 23 18 15 19 17 17 17 17 16 16 15 14 13 14 14 14 14 15 16 17 16 15 15 18 21 26
17 17 21 22 27 26 26 26 29 28 25 30 26 23 25 17 18 24 18 20 23 18 17 19 18 17 16 16 15 15 7 13 18 19 19 19 18 17 17 19 19 20 22
20 21 21 26 29 24 26 23 25 24 25 20 25 26 23 18 21 22 21 25 25 20 22 21 20 18 17 17 18 12 6 8 15 22 23 20 18 19 18 20 20 20 20
20 20 21 25 29 26 30 26 29 27 28 30 32 31 30 19 18 26 27 24 23 24 20 22 22 20 17 18 16 20 21 16 3 3 14 20 20 20 20 21 21 20 20
22 23 23 24 28 28 29 31 27 27 31 32 28 30 31 25 29 28 30 27 24 24 23 22 23 23 22 19 16 16 18 19 17 11 7 9 14 18 20 23 23 17 17
22 24 24 26 28 30 30 32 32 27 28 28 31 31 31 30 31 38 31 28 27 25 24 24 25 24 24 22 21 18 17 14 14 14 9 15 16 18 18 18 27 25 27
Wind_Direction
78 135 176 178 184 184 178 174 171 166 166 165 161 155 147 145 139 135 130 124 128 122 117 113 110 108 107 105 105 107 107 107 106 102 98 96 92 89 91 90 86 85 81
165 157 176 177 192 190 188 181 175 166 166 162 162 158 151 152 143 135 131 133 130 120 120 115 111 109 108 110 113 116 114 112 107 104 98 92 89 89 91 95 90 87 84
179 171 176 179 185 193 189 182 177 174 168 167 164 159 155 153 141 140 139 134 127 122 121 122 117 115 114 119 120 118 113 109 106 106 102 98 96 93 92 92 89 86 89
200 172 187 189 188 189 192 188 180 170 163 165 161 161 155 155 151 145 138 137 131 125 125 123 125 123 120 128 127 119 114 114 116 109 106 102 99 97 96 94 94 93 89
222 186 198 204 192 188 200 191 182 169 167 161 161 159 154 154 149 145 140 135 128 129 130 128 128 127 133 135 127 122 124 122 123 112 109 110 103 100 99 97 94 91 91
227 205 209 207 200 201 199 194 180 174 168 165 159 157 154 151 149 148 140 139 134 133 130 133 131 132 144 138 134 131 119 118 117 111 110 106 108 103 101 98 98 95 92
230 219 214 214 211 200 205 197 185 174 168 162 160 158 155 153 154 151 145 141 135 135 135 134 137 140 142 138 132 132 122 117 117 112 111 110 108 104 100 100 98 97 96
234 232 222 213 218 210 220 216 205 175 166 164 162 159 156 155 156 149 142 141 142 142 143 144 141 147 148 141 136 130 124 119 117 113 114 110 109 107 104 101 99 100 100
243 228 237 228 217 207 221 204 219 170 165 165 161 159 159 156 153 152 150 149 148 145 142 146 143 151 149 147 135 136 134 110 121 118 117 115 114 109 107 105 104 102 99
214 232 237 229 216 206 204 211 228 175 172 162 159 157 156 155 154 159 154 152 148 146 142 144 148 155 149 150 144 134 119 120 121 122 118 125 121 118 116 114 112 107 102
226 208 211 183 173 200 202 189 180 201 178 160 159 156 154 154 152 162 157 155 150 144 143 146 155 153 148 148 141 131 130 122 125 117 123 128 124 122 120 118 114 112 110
224 196 200 196 189 158 124 173 162 149 166 164 159 157 154 154 157 160 159 158 151 146 147 150 152 144 134 139 145 158 147 131 120 121 133 134 132 129 127 125 120 118 117
194 188 204 199 204 173 162 152 165 159 172 170 162 160 154 160 153 162 162 156 148 148 143 146 142 145 145 151 159 162 137 146 128 129 143 142 138 136 134 131 127 123 123
163 169 194 199 197 192 172 168 166 174 167 163 162 158 163 168 158 162 158 157 151 151 153 152 162 154 155 158 169 139 156 142 136 136 150 150 147 145 142 139 137 134 136
180 136 162 191 184 192 198 196 181 181 168 166 164 169 169 163 164 162 166 162 162 162 164 162 169 161 161 163 157 155 154 141 135 140 154 163 159 155 155 155 151 149 150
138 145 151 173 182 197 207 206 202 189 178 171 170 171 166 173 171 168 173 168 170 169 173 173 169 166 166 163 161 158 155 151 152 149 159 173 172 168 169 169 168 166 163
160 143 155 163 182 196 200 199 192 194 171 175 173 171 182 170 180 172 178 173 174 170 175 176 169 172 168 170 166 164 162 161 157 157 160 173 184 187 186 181 180 181 182
153 152 149 172 182 198 205 204 194 170 156 161 166 175 176 173 180 173 177 173 171 170 176 177 176 178 176 178 173 174 175 174 172 175 177 178 182 194 201 201 199 195 193
170 161 164 161 165 172 181 175 159 152 154 160 168 171 170 174 179 175 169 171 169 170 175 175 182 184 183 183 181 182 186 188 186 186 193 201 196 197 200 209 211 210 210
175 173 176 166 170 170 165 149 136 135 148 163 157 168 161 172 173 162 166 163 173 174 177 182 186 189 189 189 187 189 196 200 199 203 205 208 213 213 213 202 206 216 221
183 177 175 169 168 164 159 153 150 156 166 168 168 171 165 171 180 158 169 182 186 184 186 187 188 188 192 191 193 190 204 210 214 213 214 217 219 217 220 218 209 211 226
186 175 173 171 172 172 167 170 167 165 165 176 170 167 174 184 183 174 173 193 202 192 195 190 191 189 193 191 198 198 204 212 223 223 221 221 223 220 221 224 227 230 230
188 182 177 178 178 175 174 167 167 174 178 183 190 179 177 192 196 186 189 197 203 199 196 196 197 199 195 196 214 228 216 229 201 205 214 225 222 222 226 230 231 235 238
196 183 180 181 183 181 176 175 169 169 176 190 191 194 198 207 201 194 209 208 201 210 207 202 204 206 214 199 211 242 265 293 286 105 197 209 222 222 228 232 232 233 240
187 183 185 180 182 185 185 180 177 185 188 189 189 197 206 211 215 209 217 209 210 211 215 213 209 211 215 224 220 214 239 252 257 264 256 227 218 228 228 234 237 235 245
184 180 182 183 184 186 188 191 187 184 186 185 192 199 208 211 210 211 214 210 213 216 216 218 217 216 222 222 225 229 237 243 243 244 255 258 234 224 218 231 235 241 237